User: anonymous   Login
Location: Caltech
(34.1382°N, 118.1253°W)
Time: 07:24:18
(UTC-07:00)
Language:

OAO 1 Rocket - Orbit

View from above orbital plane
View from above orbital plane
View from above satellite
View from above satellite

Ground track
Ground track

The orbit data is extracted from the following two-line orbital elements,

1  2144U 66031B   17204.85625440 +.00000024 +00000-0 +13130-4 0  9993
2  2144 035.0437 358.2325 0007639 080.0802 280.0750 14.42626534692989
Epoch (UTC): 23 July 2017 20:33:00
Eccentricity: 0.0007639
inclination: 35.0437°
perigee height: 744 km
apogee height: 755 km
right ascension of ascending node: 358.2325°
argument of perigee: 80.0802°
revolutions per day: 14.42626534
mean anomaly at epoch: 280.0750°
orbit number at epoch: 69298

The dashed part of the orbit path shows where the satellite is in the earth's shadow,  

DLR